[[{"header":{"parameterUnit":"m.s-1","parameterCategory":2,"la1":30.2992,"la2":30.254,"lo1":-89.0895,"lo2":-89.0443,"dy":0.0025,"dx":0.0025,"nx":19,"ny":19,"refTime":"2026-04-30T21:00:00:Z","depth":"0","parameterNumber":2,"parameterNumberName":"U-component_of_CURRENTS"},"data":[0,0,0,-0.1401,-0.1403,-0.1506,-0.1506,-0.158,-0.1581,0,0,0,0,0,0,0,0,0,0,0,-0.1358,-0.1359,-0.1401,-0.1404,-0.1506,-0.1506,-0.158,-0.1581,0,0,0,0,0,0,0,0,0,0,0,-0.1358,-0.1359,-0.1359,-0.1404,-0.1506,-0.1506,-0.158,-0.1517,0,0,0,0,0,0,0,0,0,0,-0.1425,-0.1349,-0.1359,-0.1359,-0.1404,-0.1506,-0.1507,-0.1515,-0.1521,-0.1517,0,-0.153,0,-0.1558,-0.1584,-0.1584,0,0,0,-0.1406,-0.1343,-0.1417,-0.1359,-0.1405,-0.1506,-0.146,-0.1519,-0.1526,-0.1525,-0.1531,-0.1535,-0.156,-0.1585,-0.1585,-0.1703,-0.1704,0,0,-0.14,-0.1334,-0.1412,-0.1421,-0.1427,-0.1457,-0.1463,-0.1524,-0.15,-0.1531,-0.1537,-0.1561,-0.1585,-0.1585,-0.1702,-0.1703,0,0,0,-0.1382,-0.1329,-0.1401,-0.1417,-0.1441,-0.146,-0.1467,-0.1497,-0.1534,-0.1538,-0.1562,-0.1585,-0.1586,-0.1701,-0.1702,-0.1741,0,0,0,-0.1379,-0.1321,-0.1399,-0.1354,-0.144,-0.1467,-0.1438,-0.153,-0.1538,-0.1561,-0.1585,-0.1586,-0.17,-0.1702,-0.1737,-0.1786,0,0,0,-0.1355,-0.1316,-0.1338,-0.1352,-0.1402,-0.1468,-0.1506,-0.1533,-0.1552,-0.1584,-0.1587,-0.1699,-0.1701,-0.1734,-0.178,-0.1909,0,0,0,-0.1273,-0.1275,-0.1335,-0.1324,-0.1401,-0.1486,-0.1506,-0.1541,-0.1565,-0.1586,-0.17,-0.1702,-0.1734,-0.1777,-0.1904,-0.1741,-0.1751,0,0,-0.1237,-0.1267,-0.1264,-0.1323,-0.1377,-0.1473,-0.1556,-0.1589,-0.1604,-0.1674,-0.1677,-0.1738,-0.178,-0.1908,-0.1866,-0.1871,0,0,0,-0.1228,-0.1243,-0.1261,-0.1301,-0.1382,-0.1524,-0.1576,-0.1634,-0.1717,-0.1632,-0.1772,-0.1798,-0.1877,-0.1769,-0.1775,-0.1496,-0.1712,-0.1712,-0.1712,-0.1145,-0.1198,-0.1218,-0.132,-0.1393,-0.1556,-0.167,-0.1777,-0.1748,-0.1806,-0.1852,-0.201,-0.1893,-0.1896,-0.161,-0.1863,-0.1863,-0.1863,-0.1863,-0.1146,-0.1177,-0.1249,-0.1293,-0.1448,-0.1547,-0.1789,-0.1834,-0.2014,-0.1944,-0.2019,-0.1842,-0.1903,-0.1597,-0.1866,-0.1866,-0.1865,-0.1865,-0.1865,-0.1152,-0.1171,-0.1192,-0.1261,-0.1388,-0.1556,-0.1781,-0.1959,-0.2063,-0.2152,-0.2076,-0.2072,-0.1788,-0.2193,-0.2194,-0.2194,-0.2195,-0.2196,-0.2196,-0.1143,-0.1175,-0.1155,-0.123,-0.124,-0.141,-0.1779,-0.1967,-0.2153,-0.2149,-0.2147,-0.1796,-0.2113,-0.2084,-0.2208,-0.2206,-0.2204,-0.2203,-0.2202,-0.1129,-0.1124,-0.1095,-0.1072,-0.1098,-0.1125,-0.1501,-0.1823,-0.2103,-0.2138,-0.1792,-0.2161,-0.2155,-0.2146,-0.2119,-0.2247,-0.2247,-0.2247,-0.2247,-0.1084,-0.1093,-0.1014,-0.0951,-0.0931,-0.1011,-0.1005,-0.1237,-0.1502,-0.1493,-0.1656,-0.1452,-0.1463,-0.1406,-0.1414,-0.1369,-0.1304,-0.1302,-0.1301,-0.1024,-0.1021,-0.0938,-0.089,-0.0819,-0.0803,-0.0592,-0.0489,-0.0921,-0.124,-0.1309,-0.1349,-0.1027,-0.1066,-0.0955,-0.0989,-0.0908,0,0]},{"header":{"parameterUnit":"m.s-1","parameterCategory":2,"la1":30.2992,"la2":30.254,"lo1":-89.0895,"lo2":-89.0443,"dy":0.0025,"dx":0.0025,"nx":19,"ny":19,"refTime":"2026-04-30T21:00:00:Z","depth":"0","parameterNumber":3,"parameterNumberName":"V-component_of_CURRENTS"},"data":[0,0,0,-0.026,-0.0262,-0.0366,-0.0366,-0.0472,-0.0473,0,0,0,0,0,0,0,0,0,0,0,-0.0223,-0.0224,-0.026,-0.0262,-0.0366,-0.0366,-0.0472,-0.0473,0,0,0,0,0,0,0,0,0,0,0,-0.0223,-0.0223,-0.0224,-0.0262,-0.0366,-0.0366,-0.0472,-0.0402,0,0,0,0,0,0,0,0,0,0,-0.0305,-0.0272,-0.0223,-0.0224,-0.0263,-0.0366,-0.0367,-0.0399,-0.0406,-0.0416,0,-0.0431,0,-0.0452,-0.0479,-0.0479,0,0,0,-0.0268,-0.0266,-0.0294,-0.0224,-0.0264,-0.0365,-0.0321,-0.0403,-0.0411,-0.0425,-0.0432,-0.0437,-0.0454,-0.048,-0.048,-0.0616,-0.0617,0,0,-0.0262,-0.0244,-0.0288,-0.0299,-0.0289,-0.0317,-0.0324,-0.0408,-0.0416,-0.0433,-0.0439,-0.0456,-0.048,-0.0481,-0.0615,-0.0616,0,0,0,-0.0242,-0.0239,-0.0266,-0.0294,-0.0314,-0.032,-0.0328,-0.0412,-0.0421,-0.0441,-0.0457,-0.0481,-0.0482,-0.0614,-0.0616,-0.0626,0,0,0,-0.0239,-0.0227,-0.0263,-0.0254,-0.0312,-0.0368,-0.0329,-0.0415,-0.0426,-0.0456,-0.0481,-0.0483,-0.0613,-0.0615,-0.0623,-0.0605,0,0,0,-0.0219,-0.0225,-0.0237,-0.0252,-0.0295,-0.0367,-0.0382,-0.0418,-0.0435,-0.0479,-0.0483,-0.0613,-0.0615,-0.0621,-0.0603,-0.0602,0,0,0,-0.0197,-0.0206,-0.0236,-0.0244,-0.0294,-0.0381,-0.0382,-0.0443,-0.0483,-0.0481,-0.0614,-0.0616,-0.0621,-0.0601,-0.0601,-0.0475,-0.047,0,0,-0.0191,-0.0205,-0.0206,-0.0235,-0.0299,-0.0367,-0.0461,-0.0503,-0.0518,-0.0582,-0.0586,-0.0624,-0.0603,-0.0602,-0.0589,-0.0579,0,0,0,-0.0192,-0.021,-0.023,-0.0272,-0.0338,-0.0441,-0.0513,-0.0548,-0.061,-0.055,-0.0662,-0.0648,-0.0646,-0.057,-0.0564,-0.0383,-0.0625,-0.0624,-0.0624,-0.0213,-0.0225,-0.0263,-0.0319,-0.0381,-0.0506,-0.0572,-0.0644,-0.0657,-0.0691,-0.0685,-0.0728,-0.065,-0.0643,-0.046,-0.073,-0.073,-0.073,-0.073,-0.0262,-0.0292,-0.0316,-0.0354,-0.0442,-0.053,-0.0651,-0.0678,-0.074,-0.0744,-0.0742,-0.062,-0.0636,-0.0443,-0.0732,-0.0731,-0.0731,-0.0731,-0.0731,-0.0315,-0.033,-0.0337,-0.0402,-0.0461,-0.0552,-0.0643,-0.0705,-0.0728,-0.0741,-0.0648,-0.0646,-0.0447,-0.074,-0.074,-0.074,-0.074,-0.074,-0.074,-0.0376,-0.0385,-0.0431,-0.0462,-0.0486,-0.0555,-0.0642,-0.0671,-0.065,-0.0639,-0.0638,-0.0437,-0.073,-0.0696,-0.0739,-0.0739,-0.0739,-0.0739,-0.0739,-0.0447,-0.0457,-0.0525,-0.0552,-0.0615,-0.0684,-0.07,-0.0644,-0.0624,-0.0564,-0.0292,-0.0585,-0.056,-0.0564,-0.0527,-0.0524,-0.0524,-0.0524,-0.0524,-0.0501,-0.0512,-0.0624,-0.0694,-0.0763,-0.0775,-0.0776,-0.0599,-0.0292,-0.0097,-0.0104,-0.0051,-0.0067,-0.0012,-0.0028,0.002,0.0162,0.0163,0.0164,-0.0558,-0.0587,-0.0678,-0.0756,-0.083,-0.088,-0.0838,-0.0489,0.0064,0.0205,0.0123,0.0094,0.0181,0.014,0.023,0.0193,0.0271,0,0]}],[{"header":{"parameterUnit":"m.s-1","parameterCategory":2,"la1":30.2992,"la2":30.254,"lo1":-89.0895,"lo2":-89.0443,"dy":0.0025,"dx":0.0025,"nx":19,"ny":19,"refTime":"2026-04-30T21:00:00:Z","depth":"2","parameterNumber":2,"parameterNumberName":"U-component_of_CURRENTS"},"data":[0,0,0,-0.1061,-0.1062,-0.1081,-0.1081,-0.0995,-0.0994,0,0,0,0,0,0,0,0,0,0,0,-0.1043,-0.1044,-0.106,-0.1062,-0.1081,-0.1081,-0.0995,-0.0994,0,0,0,0,0,0,0,0,0,0,0,-0.1043,-0.1044,-0.1044,-0.1063,-0.1081,-0.1081,-0.0995,-0.1,0,0,0,0,0,0,0,0,0,0,-0.0992,-0.0964,-0.1043,-0.1044,-0.1063,-0.1081,-0.108,-0.1001,-0.1,-0.0966,0,-0.0991,0,-0.101,-0.0989,-0.0989,0,0,0,-0.1027,-0.0965,-0.102,-0.1045,-0.1064,-0.1081,-0.1062,-0.1001,-0.0999,-0.0964,-0.099,-0.0988,-0.1008,-0.0989,-0.0989,-0.0848,-0.0847,0,0,-0.1026,-0.099,-0.1022,-0.102,-0.1095,-0.1062,-0.1064,-0.1001,-0.0978,-0.099,-0.0987,-0.1007,-0.0989,-0.0988,-0.0849,-0.0848,0,0,0,-0.1047,-0.0989,-0.1045,-0.1022,-0.1045,-0.1064,-0.1065,-0.0979,-0.1014,-0.0986,-0.1006,-0.0988,-0.0987,-0.085,-0.0849,-0.1046,0,0,0,-0.1044,-0.1005,-0.1045,-0.1015,-0.1048,-0.1019,-0.1045,-0.1017,-0.1012,-0.1006,-0.0988,-0.0986,-0.0851,-0.085,-0.1043,-0.1148,0,0,0,-0.1037,-0.1002,-0.1025,-0.1015,-0.1047,-0.1022,-0.1048,-0.1016,-0.1025,-0.0989,-0.0986,-0.0852,-0.085,-0.104,-0.1141,-0.1244,0,0,0,-0.0971,-0.0979,-0.1024,-0.1031,-0.1047,-0.1068,-0.1048,-0.1018,-0.0986,-0.0988,-0.0851,-0.0849,-0.1039,-0.1137,-0.1239,-0.0976,-0.0979,0,0,-0.0945,-0.0973,-0.0984,-0.1027,-0.1059,-0.1061,-0.1075,-0.1023,-0.0933,-0.0861,-0.0858,-0.1044,-0.1141,-0.1243,-0.0841,-0.0849,0,0,0,-0.0953,-0.0966,-0.0974,-0.1015,-0.1047,-0.1101,-0.1051,-0.1051,-0.0993,-0.0913,-0.094,-0.0992,-0.1054,-0.0879,-0.0883,-0.0838,-0.0838,-0.0838,-0.0839,-0.0885,-0.0941,-0.0955,-0.1021,-0.105,-0.1109,-0.1153,-0.1125,-0.1024,-0.1009,-0.1077,-0.1182,-0.099,-0.0992,-0.0974,-0.0974,-0.0975,-0.0976,-0.0976,-0.0862,-0.0872,-0.0967,-0.0997,-0.1106,-0.1138,-0.1246,-0.1242,-0.1297,-0.1163,-0.1212,-0.0996,-0.101,-0.099,-0.0987,-0.0985,-0.0984,-0.0983,-0.0982,-0.0786,-0.0801,-0.085,-0.0954,-0.107,-0.1173,-0.1307,-0.1413,-0.1436,-0.1519,-0.1266,-0.1258,-0.1385,-0.1519,-0.152,-0.152,-0.1521,-0.1522,-0.1522,-0.0685,-0.0741,-0.0777,-0.0903,-0.0966,-0.1108,-0.1354,-0.1437,-0.1497,-0.1444,-0.144,-0.1365,-0.1347,-0.141,-0.1536,-0.1534,-0.1532,-0.1531,-0.153,-0.0576,-0.0617,-0.0667,-0.0724,-0.088,-0.0916,-0.1172,-0.1259,-0.1412,-0.1368,-0.139,-0.1389,-0.1308,-0.1295,-0.135,-0.1455,-0.1455,-0.1455,-0.1455,-0.049,-0.0524,-0.0566,-0.063,-0.072,-0.0824,-0.0775,-0.086,-0.1041,-0.1094,-0.111,-0.0897,-0.0907,-0.0792,-0.0791,-0.0831,-0.0802,-0.0801,-0.08,-0.0434,-0.0468,-0.0456,-0.0541,-0.0619,-0.0656,-0.0512,-0.0415,-0.0554,-0.0781,-0.1065,-0.1398,-0.1116,-0.112,-0.096,-0.0952,-0.1022,0,0]},{"header":{"parameterUnit":"m.s-1","parameterCategory":2,"la1":30.2992,"la2":30.254,"lo1":-89.0895,"lo2":-89.0443,"dy":0.0025,"dx":0.0025,"nx":19,"ny":19,"refTime":"2026-04-30T21:00:00:Z","depth":"2","parameterNumber":3,"parameterNumberName":"V-component_of_CURRENTS"},"data":[0,0,0,0.0014,0.0014,0.0003,0.0003,-0.0004,-0.0004,0,0,0,0,0,0,0,0,0,0,0,0.0008,0.0007,0.0014,0.0014,0.0003,0.0003,-0.0004,-0.0004,0,0,0,0,0,0,0,0,0,0,0,0.0008,0.0008,0.0007,0.0014,0.0003,0.0003,-0.0004,0.0002,0,0,0,0,0,0,0,0,0,0,0.0012,0.0002,0.0008,0.0007,0.0014,0.0003,0.0003,0.0002,0.0002,0.0003,0,-0.0006,0,-0.0,-0.0004,-0.0004,0,0,0,0.0013,0.0003,0.0005,0.0007,0.0014,0.0003,0.0008,0.0002,0.0001,0.0003,-0.0006,-0.0006,-0.0,-0.0004,-0.0004,0.0075,0.0076,0,0,0.0013,0.0003,0.0005,0.0004,0.0001,0.0008,0.0007,0.0002,-0.0006,-0.0006,-0.0006,-0.0,-0.0004,-0.0004,0.0075,0.0076,0,0,0,0.0016,0.0004,0.0006,0.0004,0.0004,0.0008,0.0007,-0.0006,-0.0005,-0.0006,-0.0,-0.0004,-0.0004,0.0074,0.0075,-0.0015,0,0,0,0.0016,0.0006,0.0006,-0.0,0.0004,-0.0002,-0.0001,-0.0005,-0.0005,-0.0,-0.0004,-0.0004,0.0073,0.0074,-0.0015,-0.0054,0,0,0,0.001,0.0005,0.0002,-0.0001,-0.0003,-0.0002,-0.0001,-0.0004,-0.0001,-0.0004,-0.0004,0.0072,0.0074,-0.0014,-0.0052,0.0007,0,0,0,0.0005,-0.0005,0.0001,0.0002,-0.0003,-0.0015,-0.0001,-0.0004,-0.0008,-0.0004,0.0073,0.0075,-0.0014,-0.0051,0.0007,0.0087,0.0095,0,0,-0.0007,-0.0007,-0.0001,0.0006,-0.0006,-0.0013,-0.0012,-0.0005,0.0033,0.0072,0.0074,-0.0015,-0.0052,0.0007,0.021,0.0213,0,0,0,-0.0002,-0.0005,-0.0002,-0.0008,-0.0015,-0.0022,-0.0014,-0.0004,0.0033,0.0042,0.0054,0.0036,0.0074,0.0125,0.0129,0.0085,0.0085,0.0084,0.0084,-0.0047,-0.003,-0.0038,-0.002,-0.0028,-0.0031,-0.0022,0.0007,0.0021,0.0051,0.0012,0.0064,0.0118,0.0122,0.0073,0.0072,0.0072,0.0072,0.0072,-0.0072,-0.0071,-0.0066,-0.0067,-0.0071,-0.008,-0.0045,-0.0028,0.0014,0.0013,0.0056,0.009,0.012,0.0066,0.0067,0.0068,0.0069,0.0069,0.0069,-0.0099,-0.0099,-0.0099,-0.0126,-0.0146,-0.0129,-0.0149,-0.0117,-0.0039,-0.0032,0.0096,0.0099,-0.0001,0.0001,0.0001,0.0001,0.0001,0.0001,0.0001,-0.0133,-0.0133,-0.0178,-0.0191,-0.0225,-0.026,-0.0231,-0.0176,-0.0037,0.0035,0.0037,0.0042,0.0044,0.0001,0.0002,0.0002,0.0002,0.0002,0.0002,-0.0152,-0.0175,-0.0243,-0.0291,-0.0373,-0.0451,-0.0393,-0.0201,-0.0068,0.0052,0.0117,0.0114,0.0166,0.0166,0.013,0.0165,0.0165,0.0165,0.0165,-0.0179,-0.0192,-0.0295,-0.0389,-0.0494,-0.0536,-0.0529,-0.0264,0.0058,0.0235,0.0232,0.0237,0.023,0.0287,0.0284,0.025,0.0316,0.0316,0.0316,-0.0204,-0.0238,-0.0312,-0.0406,-0.0534,-0.0642,-0.0647,-0.0291,0.0252,0.0317,0.0208,0.0185,0.0184,0.0176,0.0258,0.0255,0.0199,0,0]}],[{"header":{"parameterUnit":"m.s-1","parameterCategory":2,"la1":30.2992,"la2":30.254,"lo1":-89.0895,"lo2":-89.0443,"dy":0.0025,"dx":0.0025,"nx":19,"ny":19,"refTime":"2026-04-30T21:00:00:Z","depth":"4","parameterNumber":2,"parameterNumberName":"U-component_of_CURRENTS"},"data":[0,0,0,-0.0396,-0.0393,-0.0277,-0.0277,-0.0348,-0.0349,0,0,0,0,0,0,0,0,0,0,0,-0.0457,-0.0456,-0.0396,-0.0392,-0.0277,-0.0276,-0.0348,-0.0349,0,0,0,0,0,0,0,0,0,0,0,-0.0457,-0.0457,-0.0456,-0.0392,-0.0277,-0.0276,-0.0348,-0.0385,0,0,0,0,0,0,0,0,0,0,-0.0471,-0.0505,-0.0457,-0.0456,-0.0391,-0.0277,-0.0276,-0.0384,-0.0382,-0.0458,0,-0.0436,0,-0.0383,-0.0358,-0.0358,0,0,0,-0.0409,-0.0506,-0.0454,-0.0456,-0.039,-0.0277,-0.0334,-0.0381,-0.038,-0.0457,-0.0437,-0.0437,-0.0384,-0.0358,-0.0359,-0.0369,-0.0369,0,0,-0.0415,-0.0462,-0.0454,-0.0453,-0.036,-0.0337,-0.033,-0.0378,-0.0395,-0.0437,-0.0437,-0.0386,-0.0359,-0.036,-0.037,-0.0369,0,0,0,-0.0422,-0.0467,-0.041,-0.0452,-0.0407,-0.0333,-0.0325,-0.0393,-0.0368,-0.0437,-0.0386,-0.036,-0.0361,-0.0371,-0.037,-0.0412,0,0,0,-0.0427,-0.0468,-0.0413,-0.0443,-0.0404,-0.0371,-0.034,-0.0365,-0.0367,-0.0386,-0.036,-0.0363,-0.0372,-0.037,-0.0413,-0.0482,0,0,0,-0.0462,-0.0473,-0.0453,-0.0445,-0.0381,-0.0367,-0.0345,-0.0363,-0.0337,-0.0358,-0.0363,-0.0373,-0.0371,-0.0414,-0.0481,-0.0494,0,0,0,-0.0522,-0.0507,-0.0455,-0.0438,-0.0382,-0.0319,-0.0343,-0.0328,-0.0344,-0.0361,-0.0372,-0.037,-0.0414,-0.048,-0.0493,-0.0461,0,0,0,-0.0533,-0.051,-0.0499,-0.0447,-0.0418,-0.0336,-0.0313,-0.0349,-0.0338,-0.0378,-0.0376,-0.0413,-0.0481,-0.0494,-0.0344,0,0,0,0,-0.0521,-0.0513,-0.0494,-0.0467,-0.0406,-0.0379,-0.0343,-0.0319,-0.0322,-0.033,-0.0361,-0.0402,-0.041,-0.0384,-0.036,-0.0361,-0.0361,-0.0361,-0.0361,-0.0557,-0.0537,-0.0548,-0.0513,-0.0487,-0.0409,-0.0383,-0.0341,-0.0329,-0.0307,-0.0396,-0.0387,-0.0353,-0.0322,-0.0322,-0.0322,-0.0322,-0.0322,-0.0322,-0.0559,-0.055,-0.0592,-0.0594,-0.0579,-0.0559,-0.0474,-0.043,-0.0398,-0.0365,-0.0369,-0.0379,-0.0325,-0.0325,-0.0324,-0.0324,-0.0324,-0.0323,-0.0323,-0.0514,-0.0527,-0.0565,-0.0629,-0.0691,-0.066,-0.0655,-0.0582,-0.0487,-0.0481,-0.0439,-0.0422,-0.0467,-0.0475,-0.0475,-0.0475,-0.0475,-0.0476,-0.0476,-0.0444,-0.0499,-0.0549,-0.0661,-0.0728,-0.0792,-0.076,-0.0708,-0.0616,-0.0511,-0.051,-0.0439,-0.0434,-0.0474,-0.0481,-0.048,-0.0479,-0.0479,-0.0479,-0.0359,-0.0401,-0.0463,-0.054,-0.0713,-0.0775,-0.0816,-0.0726,-0.0661,-0.0587,-0.0501,-0.0499,-0.0493,-0.0488,-0.053,-0.0554,-0.0553,-0.0553,0,-0.0296,-0.0326,-0.0389,-0.0477,-0.0584,-0.0722,-0.0672,-0.0656,-0.0564,-0.0532,-0.0595,-0.0497,-0.0494,-0.0486,-0.048,-0.0527,0,0,0,-0.0266,-0.0286,-0.0302,-0.0396,-0.051,-0.0578,-0.0649,-0.0588,-0.0633,-0.0576,-0.0545,-0.0547,-0.0538,-0.0496,-0.0483,-0.0477,-0.0541,0,0]},{"header":{"parameterUnit":"m.s-1","parameterCategory":2,"la1":30.2992,"la2":30.254,"lo1":-89.0895,"lo2":-89.0443,"dy":0.0025,"dx":0.0025,"nx":19,"ny":19,"refTime":"2026-04-30T21:00:00:Z","depth":"4","parameterNumber":3,"parameterNumberName":"V-component_of_CURRENTS"},"data":[0,0,0,0.0181,0.0182,0.0254,0.0255,0.0461,0.0463,0,0,0,0,0,0,0,0,0,0,0,0.0138,0.0139,0.018,0.0182,0.0254,0.0255,0.0461,0.0463,0,0,0,0,0,0,0,0,0,0,0,0.0138,0.0139,0.0139,0.0183,0.0254,0.0255,0.046,0.0376,0,0,0,0,0,0,0,0,0,0,0.0291,0.0223,0.0138,0.0139,0.0183,0.0254,0.0255,0.0371,0.0381,0.0463,0,0.0464,0,0.0483,0.048,0.0481,0,0,0,0.0177,0.0213,0.0253,0.0139,0.0184,0.0254,0.022,0.0376,0.0388,0.0478,0.0467,0.0474,0.0487,0.0482,0.0483,0.0638,0.0638,0,0,0.0173,0.014,0.0244,0.026,0.0194,0.0218,0.0223,0.0382,0.0382,0.0467,0.0479,0.049,0.0484,0.0486,0.0638,0.0638,0,0,0,0.0165,0.0137,0.017,0.0252,0.0265,0.022,0.0226,0.0374,0.039,0.0481,0.0493,0.0485,0.0488,0.0639,0.0638,0.0626,0,0,0,0.0162,0.0134,0.0168,0.0148,0.026,0.0302,0.0214,0.0378,0.0397,0.0492,0.0485,0.0491,0.0639,0.0638,0.0627,0.0588,0,0,0,0.0137,0.0131,0.014,0.0146,0.0184,0.03,0.0323,0.0381,0.0406,0.0482,0.0491,0.0639,0.0639,0.0627,0.059,0.0617,0,0,0,0.0102,0.0096,0.0138,0.0154,0.0183,0.0265,0.0321,0.0399,0.0461,0.0487,0.0639,0.0638,0.0628,0.0592,0.0618,0.0502,0,0,0,0.0076,0.0091,0.0108,0.015,0.0219,0.0255,0.033,0.0439,0.0478,0.0595,0.0598,0.0626,0.059,0.0618,0.0475,0,0,0,0,0.0091,0.0101,0.0131,0.0183,0.0255,0.0313,0.0413,0.0449,0.0528,0.0514,0.062,0.0597,0.0615,0.0549,0.0636,0.0636,0.0636,0.0636,0.0636,0.0024,0.0088,0.0112,0.0198,0.0255,0.0375,0.0423,0.0487,0.0549,0.0562,0.0584,0.0584,0.0512,0.0597,0.0597,0.0597,0.0597,0.0597,0.0597,0.0,0.002,0.009,0.0128,0.0223,0.0285,0.0423,0.0475,0.0557,0.0563,0.0584,0.0534,0.0596,0.0596,0.0596,0.0596,0.0597,0.0597,0.0597,-0.0032,-0.0024,-0.0003,0.0042,0.0081,0.0191,0.0239,0.0369,0.0497,0.0537,0.0491,0.0575,0.0582,0.0559,0.0559,0.0559,0.0559,0.0559,0.0559,-0.0084,-0.0063,-0.0085,-0.0059,-0.0071,-0.005,0.0121,0.021,0.0386,0.0435,0.0525,0.0571,0.0572,0.058,0.0558,0.0559,0.0559,0.0559,0.0559,-0.0106,-0.0121,-0.0154,-0.0182,-0.0222,-0.0221,-0.0088,0.012,0.0227,0.0316,0.0408,0.0416,0.0411,0.0416,0.0418,0.0348,0.0347,0.0345,0,-0.0138,-0.0142,-0.0199,-0.0259,-0.0316,-0.0296,-0.0202,-0.0062,0.0168,0.0157,0.0247,0.0343,0.0352,0.0338,0.0341,0.0337,0,0,0,-0.0156,-0.0173,-0.0218,-0.0271,-0.0343,-0.0268,-0.0174,-0.009,0.0086,0.0189,0.0306,0.0316,0.04,0.0556,0.0567,0.0569,0.0581,0,0]}]]